Simultaneous Nadir Overpasses (SNOs) Predictions

Prediction of SNOs between NOAA-19 and TERRA Satellite Orbit:

Table of predicted SNOs for the next 14.0 days since TLE Epoch: 10/29/2011
Index Date Time (NOAA-19) NOAA-19 Lat,Lon TERRA Lat,Lon Distance(km) Time Diff (sec)
1 10/29/2011 13:49:39 -72.01, 146.95 -71.95, 156.08 313.89 40
2 10/29/2011 14:39:40 68.98, -40.81 68.96, -40.76 2.67 59
3 10/29/2011 15:30:43 -68.79, 126.67 -68.79, 126.65 1.20 33
4 10/29/2011 16:21:06 66.84, -63.62 66.89, -67.91 187.73 57
5 10/31/2011 18:34:06 -70.44, 78.48 -70.38, 82.46 148.55 61
6 10/31/2011 19:24:36 68.89,-111.94 68.90,-111.92 0.76 23
7 10/31/2011 20:15:39 -68.72, 55.53 -68.73, 55.49 1.62 69
8 10/31/2011 21:05:31 65.07,-132.95 65.12,-140.76 365.47 32
9 11/02/2011 22:28:52 73.26,-165.38 73.22,-151.31 450.29 14
10 11/02/2011 23:18:39 -69.19, 9.16 -69.14, 9.66 20.54 70
11 11/03/2011 00:09:32 68.83, 176.91 68.81, 176.89 1.84 12
12 11/03/2011 01:00:14 -67.55, -14.19 -67.64, -16.89 114.84 65
13 11/05/2011 03:13:12 71.39, 127.17 71.29, 134.08 246.29 50
14 11/05/2011 04:03:31 -68.94, -61.74 -68.92, -61.70 3.04 42
15 11/05/2011 04:54:28 68.78, 105.74 68.76, 105.74 1.96 47
16 11/05/2011 05:44:44 -66.11, -83.77 -66.12, -89.59 262.30 48
17 11/07/2011 07:57:43 70.05, 58.16 69.90, 60.89 105.59 65
18 11/07/2011 08:48:25 -68.83,-132.81 -68.85,-132.88 3.46 10
19 11/07/2011 09:39:18 68.43, 34.98 68.52, 34.36 27.25 72
20 11/07/2011
